Powrót do katalogu

STARLINK-30544

AktywnyŁącznośćVLEO
NORAD 58055·PAYLOAD·🇺🇸 United States

Wystrzelony Oct 13, 2023 z Cape Canaveral Space Force Station

Loading…

Następne Przeloty (najbliższe 24 godziny)

TLE

ŚwieżeSource: CelesTrak SupGP

Epoka: Sep 15, 2026, 02:12 UTC

1 58055C 23158E   26258.09215278 -.00083070  00000+0 -30084-2 0  2583
2 58055  43.0049  37.0884 0002398 271.2621 328.4279 15.27622530    17

Śledź STARLINK-30544 w czasie rzeczywistym z AllMySat

Download on the App Store